Year,Month,Day,Hour,Minute,Value (Times are PST for temperature in C)
2011,07,02,00,00,11.20
2011,07,02,00,01,11.10
2011,07,02,00,02,11.10
2011,07,02,00,03,11.10
2011,07,02,00,04,11.10
2011,07,02,00,05,11.10
2011,07,02,00,06,11.10
2011,07,02,00,07,11.10
2011,07,02,00,08,11.00
2011,07,02,00,09,11.00
2011,07,02,00,10,11.00
2011,07,02,00,11,10.90
2011,07,02,00,12,10.90
2011,07,02,00,13,10.90
2011,07,02,00,14,10.90
2011,07,02,00,15,10.90
2011,07,02,00,16,10.90
2011,07,02,00,17,10.90
2011,07,02,00,18,10.90
2011,07,02,00,19,10.90
2011,07,02,00,20,10.80
2011,07,02,00,21,10.80
2011,07,02,00,22,10.80
2011,07,02,00,23,10.80
2011,07,02,00,24,10.80
2011,07,02,00,25,10.80
2011,07,02,00,26,10.80
2011,07,02,00,27,10.80
2011,07,02,00,28,10.80
2011,07,02,00,29,10.80
2011,07,02,00,30,10.80
2011,07,02,00,31,10.80
2011,07,02,00,32,10.80
2011,07,02,00,33,10.80
2011,07,02,00,34,10.80
2011,07,02,00,35,10.80
2011,07,02,00,36,10.80
2011,07,02,00,37,10.80
2011,07,02,00,38,10.80
2011,07,02,00,39,10.70
2011,07,02,00,40,10.70
2011,07,02,00,41,10.70
2011,07,02,00,42,10.70
2011,07,02,00,43,10.70
2011,07,02,00,44,10.70
2011,07,02,00,45,10.70
2011,07,02,00,46,10.70
2011,07,02,00,47,10.70
2011,07,02,00,48,10.70
2011,07,02,00,49,10.70
2011,07,02,00,50,10.70
2011,07,02,00,51,10.70
2011,07,02,00,52,10.70
2011,07,02,00,53,10.70
2011,07,02,00,54,10.70
2011,07,02,00,55,10.70
2011,07,02,00,56,10.70
2011,07,02,00,57,10.70
2011,07,02,00,58,10.70
2011,07,02,00,59,10.70
2011,07,02,01,00,10.70
2011,07,02,01,01,10.70
2011,07,02,01,02,10.70
2011,07,02,01,03,10.70
2011,07,02,01,04,10.70
2011,07,02,01,05,10.70
2011,07,02,01,06,10.70
2011,07,02,01,07,10.70
2011,07,02,01,08,10.70
2011,07,02,01,09,10.70
2011,07,02,01,10,10.70
2011,07,02,01,11,10.70
2011,07,02,01,12,10.70
2011,07,02,01,13,10.60
2011,07,02,01,14,10.60
2011,07,02,01,15,10.60
2011,07,02,01,16,10.60
2011,07,02,01,17,10.60
2011,07,02,01,18,10.60
2011,07,02,01,19,10.60
2011,07,02,01,20,10.60
2011,07,02,01,21,10.60
2011,07,02,01,22,10.60
2011,07,02,01,23,10.50
2011,07,02,01,24,10.50
2011,07,02,01,25,10.50
2011,07,02,01,26,10.50
2011,07,02,01,27,10.40
2011,07,02,01,28,10.40
2011,07,02,01,29,10.40
2011,07,02,01,30,10.40
2011,07,02,01,31,10.40
2011,07,02,01,32,10.30
2011,07,02,01,33,10.30
2011,07,02,01,34,10.30
2011,07,02,01,35,10.30
2011,07,02,01,36,10.30
2011,07,02,01,37,10.30
2011,07,02,01,38,10.30
2011,07,02,01,39,10.30
2011,07,02,01,40,10.20
2011,07,02,01,41,10.20
2011,07,02,01,42,10.20
2011,07,02,01,43,10.20
2011,07,02,01,44,10.10
2011,07,02,01,45,10.10
2011,07,02,01,46,10.10
2011,07,02,01,47,10.10
2011,07,02,01,48,10.10
2011,07,02,01,49,10.00
2011,07,02,01,50,10.00
2011,07,02,01,51,10.00
2011,07,02,01,52,9.90
2011,07,02,01,53,9.90
2011,07,02,01,54,9.90
2011,07,02,01,55,9.90
2011,07,02,01,56,9.80
2011,07,02,01,57,9.80
2011,07,02,01,58,9.80
2011,07,02,01,59,9.80
2011,07,02,02,00,9.80
2011,07,02,02,01,9.70
2011,07,02,02,02,9.70
2011,07,02,02,03,9.70
2011,07,02,02,04,9.70
2011,07,02,02,05,9.70
2011,07,02,02,06,9.60
2011,07,02,02,07,9.60
2011,07,02,02,08,9.60
2011,07,02,02,09,9.60
2011,07,02,02,10,9.60
2011,07,02,02,11,9.60
2011,07,02,02,12,9.60
2011,07,02,02,13,9.50
2011,07,02,02,14,9.50
2011,07,02,02,15,9.50
2011,07,02,02,16,9.40
2011,07,02,02,17,9.40
2011,07,02,02,18,9.40
2011,07,02,02,19,9.40
2011,07,02,02,20,9.40
2011,07,02,02,21,9.40
2011,07,02,02,22,9.40
2011,07,02,02,23,9.40
2011,07,02,02,24,9.30
2011,07,02,02,25,9.30
2011,07,02,02,26,9.30
2011,07,02,02,27,9.30
2011,07,02,02,28,9.30
2011,07,02,02,29,9.30
2011,07,02,02,30,9.20
2011,07,02,02,31,9.20
2011,07,02,02,32,9.20
2011,07,02,02,33,9.20
2011,07,02,02,34,9.20
2011,07,02,02,35,9.20
2011,07,02,02,36,9.20
2011,07,02,02,37,9.20
2011,07,02,02,38,9.20
2011,07,02,02,39,9.10
2011,07,02,02,40,9.10
2011,07,02,02,41,9.10
2011,07,02,02,42,9.10
2011,07,02,02,43,9.10
2011,07,02,02,44,9.00
2011,07,02,02,45,9.00
2011,07,02,02,46,9.00
2011,07,02,02,47,9.00
2011,07,02,02,48,8.90
2011,07,02,02,49,8.90
2011,07,02,02,50,8.90
2011,07,02,02,51,8.90
2011,07,02,02,52,8.90
2011,07,02,02,53,8.90
2011,07,02,02,54,8.90
2011,07,02,02,55,8.90
2011,07,02,02,56,8.90
2011,07,02,02,57,8.90
2011,07,02,02,58,8.90
2011,07,02,02,59,8.90
2011,07,02,03,00,8.90
2011,07,02,03,01,8.90
2011,07,02,03,02,8.90
2011,07,02,03,06,8.90
2011,07,02,03,07,8.90
2011,07,02,03,08,8.80
2011,07,02,03,09,8.80
2011,07,02,03,10,8.80
2011,07,02,03,11,8.80
2011,07,02,03,12,8.80
2011,07,02,03,13,8.80
2011,07,02,03,14,8.80
2011,07,02,03,15,8.80
2011,07,02,03,16,8.80
2011,07,02,03,17,8.70
2011,07,02,03,18,8.70
2011,07,02,03,19,8.70
2011,07,02,03,20,8.70
2011,07,02,03,21,8.70
2011,07,02,03,22,8.70
2011,07,02,03,23,8.70
2011,07,02,03,24,8.70
2011,07,02,03,25,8.70
2011,07,02,03,26,8.60
2011,07,02,03,27,8.60
2011,07,02,03,28,8.60
2011,07,02,03,29,8.60
2011,07,02,03,30,8.60
2011,07,02,03,31,8.60
2011,07,02,03,32,8.60
2011,07,02,03,33,8.60
2011,07,02,03,34,8.60
2011,07,02,03,35,8.60
2011,07,02,03,36,8.60
2011,07,02,03,37,8.50
2011,07,02,03,38,8.50
2011,07,02,03,39,8.50
2011,07,02,03,40,8.50
2011,07,02,03,41,8.50
2011,07,02,03,42,8.50
2011,07,02,03,43,8.50
2011,07,02,03,44,8.50
2011,07,02,03,45,8.50
2011,07,02,03,46,8.50
2011,07,02,03,47,8.50
2011,07,02,03,48,8.40
2011,07,02,03,49,8.40
2011,07,02,03,50,8.40
2011,07,02,03,51,8.40
2011,07,02,03,52,8.40
2011,07,02,03,53,8.40
2011,07,02,03,54,8.40
2011,07,02,03,55,8.40
2011,07,02,03,56,8.40
2011,07,02,03,57,8.30
2011,07,02,03,58,8.30
2011,07,02,03,59,8.30
2011,07,02,04,00,8.30
2011,07,02,04,01,8.30
2011,07,02,04,02,8.30
2011,07,02,04,03,8.30
2011,07,02,04,04,8.30
2011,07,02,04,05,8.30
2011,07,02,04,06,8.20
2011,07,02,04,07,8.20
2011,07,02,04,08,8.20
2011,07,02,04,09,8.20
2011,07,02,04,10,8.20
2011,07,02,04,11,8.20
2011,07,02,04,12,8.10
2011,07,02,04,13,8.10
2011,07,02,04,14,8.10
2011,07,02,04,15,8.10
2011,07,02,04,16,8.10
2011,07,02,04,17,8.10
2011,07,02,04,18,8.10
2011,07,02,04,19,8.10
2011,07,02,04,20,8.10
2011,07,02,04,21,8.10
2011,07,02,04,22,8.00
2011,07,02,04,23,8.00
2011,07,02,04,24,8.00
2011,07,02,04,25,7.90
2011,07,02,04,26,7.90
2011,07,02,04,27,7.90
2011,07,02,04,28,7.90
2011,07,02,04,29,7.90
2011,07,02,04,30,7.90
2011,07,02,04,31,7.90
2011,07,02,04,32,7.80
2011,07,02,04,33,7.80
2011,07,02,04,34,7.80
2011,07,02,04,35,7.80
2011,07,02,04,36,7.80
2011,07,02,04,37,7.80
2011,07,02,04,38,7.80
2011,07,02,04,39,7.80
2011,07,02,04,40,7.70
2011,07,02,04,41,7.70
2011,07,02,04,42,7.70
2011,07,02,04,43,7.70
2011,07,02,04,44,7.70
2011,07,02,04,45,7.70
2011,07,02,04,46,7.70
2011,07,02,04,47,7.70
2011,07,02,04,48,7.70
2011,07,02,04,49,7.70
2011,07,02,04,50,7.70
2011,07,02,04,51,7.70
2011,07,02,04,52,7.70
2011,07,02,04,53,7.70
2011,07,02,04,54,7.60
2011,07,02,04,55,7.60
2011,07,02,04,56,7.60
2011,07,02,04,57,7.70
2011,07,02,04,58,7.70
2011,07,02,04,59,7.70
2011,07,02,05,00,7.70
2011,07,02,05,01,7.70
2011,07,02,05,02,7.70
2011,07,02,05,03,7.70
2011,07,02,05,04,7.70
2011,07,02,05,05,7.70
2011,07,02,05,06,7.70
2011,07,02,05,07,7.70
2011,07,02,05,08,7.70
2011,07,02,05,09,7.70
2011,07,02,05,10,7.70
2011,07,02,05,11,7.70
2011,07,02,05,12,7.60
2011,07,02,05,13,7.60
2011,07,02,05,14,7.60
2011,07,02,05,15,7.60
2011,07,02,05,16,7.60
2011,07,02,05,17,7.60
2011,07,02,05,18,7.60
2011,07,02,05,19,7.60
2011,07,02,05,20,7.60
2011,07,02,05,21,7.60
2011,07,02,05,22,7.60
2011,07,02,05,23,7.60
2011,07,02,05,24,7.60
2011,07,02,05,25,7.60
2011,07,02,05,26,7.60
2011,07,02,05,27,7.60
2011,07,02,05,28,7.60
2011,07,02,05,29,7.50
2011,07,02,05,30,7.50
2011,07,02,05,31,7.50
2011,07,02,05,32,7.50
2011,07,02,05,33,7.50
2011,07,02,05,34,7.50
2011,07,02,05,35,7.50
2011,07,02,05,36,7.40
2011,07,02,05,37,7.40
2011,07,02,05,38,7.40
2011,07,02,05,39,7.40
2011,07,02,05,40,7.40
2011,07,02,05,41,7.40
2011,07,02,05,42,7.40
2011,07,02,05,43,7.40
2011,07,02,05,44,7.40
2011,07,02,05,45,7.40
2011,07,02,05,46,7.40
2011,07,02,05,47,7.40
2011,07,02,05,48,7.40
2011,07,02,05,49,7.40
2011,07,02,05,50,7.40
2011,07,02,05,51,7.40
2011,07,02,05,52,7.40
2011,07,02,05,53,7.40
2011,07,02,05,54,7.40
2011,07,02,05,55,7.40
2011,07,02,05,56,7.30
2011,07,02,05,57,7.30
2011,07,02,05,58,7.30
2011,07,02,05,59,7.30
2011,07,02,06,00,7.30
2011,07,02,06,01,7.30
2011,07,02,06,02,7.30
2011,07,02,06,03,7.30
2011,07,02,06,04,7.30
2011,07,02,06,05,7.30
2011,07,02,06,06,7.30
2011,07,02,06,07,7.40
2011,07,02,06,08,7.40
2011,07,02,06,09,7.40
2011,07,02,06,10,7.40
2011,07,02,06,11,7.40
2011,07,02,06,12,7.40
2011,07,02,06,13,7.40
2011,07,02,06,14,7.40
2011,07,02,06,15,7.40
2011,07,02,06,16,7.50
2011,07,02,06,17,7.50
2011,07,02,06,18,7.50
2011,07,02,06,19,7.50
2011,07,02,06,20,7.50
2011,07,02,06,21,7.60
2011,07,02,06,22,7.60
2011,07,02,06,23,7.60
2011,07,02,06,24,7.60
2011,07,02,06,25,7.60
2011,07,02,06,26,7.60
2011,07,02,06,27,7.60
2011,07,02,06,28,7.60
2011,07,02,06,29,7.60
2011,07,02,06,30,7.70
2011,07,02,06,31,7.70
2011,07,02,06,32,7.70
2011,07,02,06,33,7.70
2011,07,02,06,34,7.70
2011,07,02,06,35,7.70
2011,07,02,06,36,7.80
2011,07,02,06,37,7.80
2011,07,02,06,38,7.80
2011,07,02,06,39,7.80
2011,07,02,06,40,7.80
2011,07,02,06,41,7.80
2011,07,02,06,42,7.80
2011,07,02,06,43,7.90
2011,07,02,06,44,7.90
2011,07,02,06,45,7.90
2011,07,02,06,46,7.90
2011,07,02,06,47,7.90
2011,07,02,06,48,8.00
2011,07,02,06,49,8.00
2011,07,02,06,50,8.00
2011,07,02,06,51,8.10
2011,07,02,06,52,8.10
2011,07,02,06,53,8.10
2011,07,02,06,54,8.20
2011,07,02,06,55,8.20
2011,07,02,06,56,8.20
2011,07,02,06,57,8.30
2011,07,02,06,58,8.30
2011,07,02,06,59,8.30
2011,07,02,07,00,8.40
2011,07,02,07,01,8.40
2011,07,02,07,02,8.40
2011,07,02,07,03,8.50
2011,07,02,07,04,8.50
2011,07,02,07,05,8.60
2011,07,02,07,06,8.60
2011,07,02,07,07,8.70
2011,07,02,07,08,8.70
2011,07,02,07,09,8.70
2011,07,02,07,10,8.80
2011,07,02,07,11,8.80
2011,07,02,07,12,8.80
2011,07,02,07,13,8.80
2011,07,02,07,14,8.90
2011,07,02,07,15,8.90
2011,07,02,07,16,8.90
2011,07,02,07,17,9.00
2011,07,02,07,18,9.00
2011,07,02,07,19,9.10
2011,07,02,07,20,9.10
2011,07,02,07,21,9.20
2011,07,02,07,22,9.20
2011,07,02,07,23,9.20
2011,07,02,07,24,9.20
2011,07,02,07,25,9.30
2011,07,02,07,26,9.30
2011,07,02,07,27,9.30
2011,07,02,07,28,9.30
2011,07,02,07,29,9.30
2011,07,02,07,30,9.40
2011,07,02,07,31,9.40
2011,07,02,07,32,9.40
2011,07,02,07,33,9.40
2011,07,02,07,34,9.50
2011,07,02,07,35,9.50
2011,07,02,07,36,9.50
2011,07,02,07,37,9.60
2011,07,02,07,38,9.60
2011,07,02,07,39,9.60
2011,07,02,07,40,9.60
2011,07,02,07,41,9.60
2011,07,02,07,42,9.70
2011,07,02,07,43,9.70
2011,07,02,07,44,9.70
2011,07,02,07,45,9.80
2011,07,02,07,46,9.80
2011,07,02,07,47,9.90
2011,07,02,07,48,10.00
2011,07,02,07,49,10.00
2011,07,02,07,50,10.10
2011,07,02,07,51,10.10
2011,07,02,07,52,10.20
2011,07,02,07,53,10.30
2011,07,02,07,54,10.30
2011,07,02,07,55,10.40
2011,07,02,07,56,10.50
2011,07,02,07,57,10.60
2011,07,02,07,58,10.70
2011,07,02,07,59,10.80
2011,07,02,08,00,10.80
2011,07,02,08,01,10.90
2011,07,02,08,02,11.00
2011,07,02,08,03,11.10
2011,07,02,08,04,11.20
2011,07,02,08,05,11.20
2011,07,02,08,06,11.30
2011,07,02,08,07,11.40
2011,07,02,08,08,11.50
2011,07,02,08,09,11.60
2011,07,02,08,10,11.70
2011,07,02,08,11,11.80
2011,07,02,08,12,11.90
2011,07,02,08,13,12.00
2011,07,02,08,14,12.20
2011,07,02,08,15,12.30
2011,07,02,08,16,12.40
2011,07,02,08,17,12.50
2011,07,02,08,18,12.70
2011,07,02,08,19,12.80
2011,07,02,08,20,12.90
2011,07,02,08,21,13.00
2011,07,02,08,22,13.20
2011,07,02,08,23,13.30
2011,07,02,08,24,13.40
2011,07,02,08,25,13.50
2011,07,02,08,26,13.70
2011,07,02,08,27,13.80
2011,07,02,08,28,13.90
2011,07,02,08,29,14.00
2011,07,02,08,30,14.10
2011,07,02,08,31,14.20
2011,07,02,08,32,14.30
2011,07,02,08,33,14.40
2011,07,02,08,34,14.50
2011,07,02,08,35,14.60
2011,07,02,08,36,14.70
2011,07,02,08,37,14.90
2011,07,02,08,38,15.00
2011,07,02,08,39,15.00
2011,07,02,08,40,15.10
2011,07,02,08,41,15.30
2011,07,02,08,42,15.40
2011,07,02,08,43,15.60
2011,07,02,08,44,15.70
2011,07,02,08,45,15.80
2011,07,02,08,46,15.90
2011,07,02,08,47,16.00
2011,07,02,08,48,16.20
2011,07,02,08,49,16.30
2011,07,02,08,50,16.40
2011,07,02,08,51,16.50
2011,07,02,08,52,16.70
2011,07,02,08,53,16.80
2011,07,02,08,54,16.90
2011,07,02,08,55,17.00
2011,07,02,08,56,17.10
2011,07,02,08,57,17.20
2011,07,02,08,58,17.20
2011,07,02,08,59,17.20
2011,07,02,09,00,17.20
2011,07,02,09,01,17.30
2011,07,02,09,02,17.30
2011,07,02,09,03,17.40
2011,07,02,09,04,17.40
2011,07,02,09,05,17.50
2011,07,02,09,06,17.50
2011,07,02,09,07,17.60
2011,07,02,09,08,17.60
2011,07,02,09,09,17.60
2011,07,02,09,10,17.50
2011,07,02,09,11,17.40
2011,07,02,09,12,17.40
2011,07,02,09,13,17.30
2011,07,02,09,14,17.30
2011,07,02,09,15,17.30
2011,07,02,09,16,17.30
2011,07,02,09,17,17.40
2011,07,02,09,18,17.40
2011,07,02,09,19,17.40
2011,07,02,09,20,17.40
2011,07,02,09,21,17.40
2011,07,02,09,22,17.50
2011,07,02,09,23,17.60
2011,07,02,09,24,17.60
2011,07,02,09,25,17.70
2011,07,02,09,26,17.70
2011,07,02,09,27,17.80
2011,07,02,09,28,17.80
2011,07,02,09,29,17.90
2011,07,02,09,30,18.00
2011,07,02,09,31,18.10
2011,07,02,09,32,18.10
2011,07,02,09,33,18.20
2011,07,02,09,34,18.30
2011,07,02,09,35,18.40
2011,07,02,09,36,18.40
2011,07,02,09,37,18.50
2011,07,02,09,38,18.50
2011,07,02,09,39,18.50
2011,07,02,09,40,18.60
2011,07,02,09,41,18.70
2011,07,02,09,42,18.70
2011,07,02,09,43,18.80
2011,07,02,09,44,18.80
2011,07,02,09,45,18.80
2011,07,02,09,46,18.80
2011,07,02,09,47,18.80
2011,07,02,09,48,18.70
2011,07,02,09,49,18.70
2011,07,02,09,50,18.60
2011,07,02,09,51,18.60
2011,07,02,09,52,18.60
2011,07,02,09,53,18.60
2011,07,02,09,54,18.60
2011,07,02,09,55,18.70
2011,07,02,09,56,18.70
2011,07,02,09,57,18.70
2011,07,02,09,58,18.70
2011,07,02,09,59,18.70
2011,07,02,10,00,18.70
2011,07,02,10,01,18.60
2011,07,02,10,02,18.60
2011,07,02,10,03,18.70
2011,07,02,10,04,18.70
2011,07,02,10,05,18.80
2011,07,02,10,06,18.80
2011,07,02,10,07,18.80
2011,07,02,10,08,18.80
2011,07,02,10,09,18.80
2011,07,02,10,10,18.90
2011,07,02,10,11,18.80
2011,07,02,10,12,18.90
2011,07,02,10,13,18.90
2011,07,02,10,14,18.90
2011,07,02,10,15,19.00
2011,07,02,10,16,19.00
2011,07,02,10,17,19.00
2011,07,02,10,18,19.10
2011,07,02,10,19,19.10
2011,07,02,10,20,19.10
2011,07,02,10,21,19.10
2011,07,02,10,22,19.10
2011,07,02,10,23,19.10
2011,07,02,10,24,19.20
2011,07,02,10,25,19.20
2011,07,02,10,26,19.30
2011,07,02,10,27,19.30
2011,07,02,10,28,19.30
2011,07,02,10,29,19.30
2011,07,02,10,30,19.40
2011,07,02,10,31,19.40
2011,07,02,10,32,19.50
2011,07,02,10,33,19.50
2011,07,02,10,34,19.60
2011,07,02,10,35,19.60
2011,07,02,10,36,19.60
2011,07,02,10,37,19.50
2011,07,02,10,38,19.50
2011,07,02,10,39,19.40
2011,07,02,10,40,19.40
2011,07,02,10,41,19.30
2011,07,02,10,42,19.30
2011,07,02,10,43,19.20
2011,07,02,10,44,19.20
2011,07,02,10,45,19.20
2011,07,02,10,46,19.20
2011,07,02,10,47,19.20
2011,07,02,10,48,19.20
2011,07,02,10,49,19.20
2011,07,02,10,50,19.20
2011,07,02,10,51,19.10
2011,07,02,10,52,19.10
2011,07,02,10,53,19.10
2011,07,02,10,54,19.10
2011,07,02,10,55,19.10
2011,07,02,10,56,19.20
2011,07,02,10,57,19.20
2011,07,02,10,58,19.30
2011,07,02,10,59,19.30
2011,07,02,11,00,19.40
2011,07,02,11,01,19.40
2011,07,02,11,02,19.50
2011,07,02,11,03,19.50
2011,07,02,11,04,19.60
2011,07,02,11,05,19.60
2011,07,02,11,06,19.60
2011,07,02,11,07,19.60
2011,07,02,11,08,19.70
2011,07,02,11,09,19.70
2011,07,02,11,10,19.70
2011,07,02,11,11,19.70
2011,07,02,11,12,19.80
2011,07,02,11,13,19.80
2011,07,02,11,14,19.80
2011,07,02,11,15,19.80
2011,07,02,11,16,19.80
2011,07,02,11,17,19.80
2011,07,02,11,18,19.80
2011,07,02,11,19,19.80
2011,07,02,11,20,19.80
2011,07,02,11,21,19.80
2011,07,02,11,22,19.90
2011,07,02,11,23,19.90
2011,07,02,11,24,19.80
2011,07,02,11,25,19.80
2011,07,02,11,26,19.80
2011,07,02,11,27,19.80
2011,07,02,11,28,19.80
2011,07,02,11,29,19.80
2011,07,02,11,30,19.80
2011,07,02,11,31,19.80
2011,07,02,11,32,19.80
2011,07,02,11,33,19.80
2011,07,02,11,34,19.70
2011,07,02,11,35,19.70
2011,07,02,11,36,19.70
2011,07,02,11,37,19.80
2011,07,02,11,38,19.80
2011,07,02,11,39,19.90
2011,07,02,11,40,19.90
2011,07,02,11,41,19.90
2011,07,02,11,42,19.90
2011,07,02,11,43,19.80
2011,07,02,11,44,19.80
2011,07,02,11,45,19.70
2011,07,02,11,46,19.70
2011,07,02,11,47,19.70
2011,07,02,11,48,19.60
2011,07,02,11,49,19.60
2011,07,02,11,50,19.60
2011,07,02,11,51,19.60
2011,07,02,11,52,19.50
2011,07,02,11,53,19.50
2011,07,02,11,54,19.50
2011,07,02,11,55,19.40
2011,07,02,11,56,19.40
2011,07,02,11,57,19.40
2011,07,02,11,58,19.30
2011,07,02,11,59,19.30
2011,07,02,12,00,19.30
2011,07,02,12,01,19.30
2011,07,02,12,02,19.30
2011,07,02,12,03,19.20
2011,07,02,12,04,19.20
2011,07,02,12,05,19.30
2011,07,02,12,06,19.30
2011,07,02,12,07,19.30
2011,07,02,12,08,19.30
2011,07,02,12,09,19.30
2011,07,02,12,10,19.30
2011,07,02,12,11,19.30
2011,07,02,12,12,19.40
2011,07,02,12,13,19.40
2011,07,02,12,14,19.50
2011,07,02,12,15,19.60
2011,07,02,12,16,19.70
2011,07,02,12,17,19.80
2011,07,02,12,18,19.80
2011,07,02,12,19,19.80
2011,07,02,12,20,19.90
2011,07,02,12,21,19.90
2011,07,02,12,22,20.00
2011,07,02,12,23,20.00
2011,07,02,12,24,20.10
2011,07,02,12,25,20.10
2011,07,02,12,26,20.20
2011,07,02,12,27,20.20
2011,07,02,12,28,20.30
2011,07,02,12,29,20.40
2011,07,02,12,30,20.40
2011,07,02,12,31,20.40
2011,07,02,12,32,20.40
2011,07,02,12,33,20.40
2011,07,02,12,34,20.40
2011,07,02,12,35,20.40
2011,07,02,12,36,20.40
2011,07,02,12,37,20.40
2011,07,02,12,38,20.30
2011,07,02,12,39,20.30
2011,07,02,12,40,20.30
2011,07,02,12,41,20.40
2011,07,02,12,42,20.40
2011,07,02,12,43,20.40
2011,07,02,12,44,20.40
2011,07,02,12,45,20.40
2011,07,02,12,46,20.40
2011,07,02,12,47,20.30
2011,07,02,12,48,20.30
2011,07,02,12,49,20.30
2011,07,02,12,50,20.30
2011,07,02,12,51,20.30
2011,07,02,12,52,20.40
2011,07,02,12,53,20.30
2011,07,02,12,54,20.30
2011,07,02,12,55,20.30
2011,07,02,12,56,20.30
2011,07,02,12,57,20.20
2011,07,02,12,58,20.20
2011,07,02,12,59,20.30
2011,07,02,13,00,20.30
2011,07,02,13,01,20.30
2011,07,02,13,02,20.40
2011,07,02,13,03,20.40
2011,07,02,13,04,20.40
2011,07,02,13,05,20.40
2011,07,02,13,06,20.40
2011,07,02,13,07,20.40
2011,07,02,13,08,20.50
2011,07,02,13,09,20.50
2011,07,02,13,10,20.60
2011,07,02,13,11,20.60
2011,07,02,13,12,20.60
2011,07,02,13,13,20.70
2011,07,02,13,14,20.70
2011,07,02,13,15,20.80
2011,07,02,13,16,20.80
2011,07,02,13,17,20.90
2011,07,02,13,18,21.00
2011,07,02,13,19,21.10
2011,07,02,13,20,21.10
2011,07,02,13,21,21.10
2011,07,02,13,22,21.10
2011,07,02,13,23,21.20
2011,07,02,13,24,21.20
2011,07,02,13,25,21.20
2011,07,02,13,26,21.20
2011,07,02,13,27,21.20
2011,07,02,13,28,21.20
2011,07,02,13,29,21.20
2011,07,02,13,30,21.20
2011,07,02,13,31,21.30
2011,07,02,13,32,21.30
2011,07,02,13,33,21.40
2011,07,02,13,34,21.40
2011,07,02,13,35,21.30
2011,07,02,13,36,21.30
2011,07,02,13,37,21.30
2011,07,02,13,38,21.30
2011,07,02,13,39,21.30
2011,07,02,13,40,21.30
2011,07,02,13,41,21.30
2011,07,02,13,42,21.30
2011,07,02,13,43,21.30
2011,07,02,13,44,21.40
2011,07,02,13,45,21.40
2011,07,02,13,46,21.30
2011,07,02,13,47,21.30
2011,07,02,13,48,21.30
2011,07,02,13,49,21.30
2011,07,02,13,50,21.40
2011,07,02,13,51,21.40
2011,07,02,13,52,21.40
2011,07,02,13,53,21.40
2011,07,02,13,54,21.40
2011,07,02,13,55,21.50
2011,07,02,13,56,21.50
2011,07,02,13,57,21.60
2011,07,02,13,58,21.70
2011,07,02,13,59,21.70
2011,07,02,14,00,21.80
2011,07,02,14,01,21.90
2011,07,02,14,02,22.00
2011,07,02,14,03,22.10
2011,07,02,14,04,22.20
2011,07,02,14,05,22.30
2011,07,02,14,06,22.40
2011,07,02,14,07,22.40
2011,07,02,14,08,22.50
2011,07,02,14,09,22.50
2011,07,02,14,10,22.50
2011,07,02,14,11,22.50
2011,07,02,14,12,22.50
2011,07,02,14,13,22.40
2011,07,02,14,14,22.40
2011,07,02,14,15,22.50
2011,07,02,14,16,22.50
2011,07,02,14,17,22.50
2011,07,02,14,18,22.50
2011,07,02,14,19,22.50
2011,07,02,14,20,22.50
2011,07,02,14,21,22.60
2011,07,02,14,22,22.70
2011,07,02,14,23,22.70
2011,07,02,14,24,22.70
2011,07,02,14,25,22.70
2011,07,02,14,26,22.70
2011,07,02,14,27,22.70
2011,07,02,14,28,22.70
2011,07,02,14,29,22.70
2011,07,02,14,30,22.80
2011,07,02,14,31,22.80
2011,07,02,14,32,22.90
2011,07,02,14,33,23.00
2011,07,02,14,34,23.10
2011,07,02,14,35,23.10
2011,07,02,14,36,23.10
2011,07,02,14,37,23.20
2011,07,02,14,38,23.20
2011,07,02,14,39,23.30
2011,07,02,14,40,23.20
2011,07,02,14,41,23.10
2011,07,02,14,42,22.90
2011,07,02,14,43,22.90
2011,07,02,14,44,22.80
2011,07,02,14,45,22.80
2011,07,02,14,46,22.70
2011,07,02,14,47,22.60
2011,07,02,14,48,22.60
2011,07,02,14,49,22.60
2011,07,02,14,50,22.60
2011,07,02,14,51,22.60
2011,07,02,14,52,22.70
2011,07,02,14,53,22.80
2011,07,02,14,54,22.80
2011,07,02,14,55,22.70
2011,07,02,14,56,22.70
2011,07,02,14,57,22.70
2011,07,02,14,58,22.70
2011,07,02,14,59,22.80
2011,07,02,15,00,22.90
2011,07,02,15,01,23.00
2011,07,02,15,02,23.10
2011,07,02,15,03,23.20
2011,07,02,15,04,23.20
2011,07,02,15,05,23.30
2011,07,02,15,06,23.40
2011,07,02,15,07,23.50
2011,07,02,15,08,23.60
2011,07,02,15,09,23.70
2011,07,02,15,10,23.80
2011,07,02,15,11,23.90
2011,07,02,15,12,23.80
2011,07,02,15,13,23.70
2011,07,02,15,14,23.60
2011,07,02,15,15,23.50
2011,07,02,15,16,23.40
2011,07,02,15,17,23.30
2011,07,02,15,18,23.20
2011,07,02,15,19,23.20
2011,07,02,15,20,23.20
2011,07,02,15,21,23.20
2011,07,02,15,22,23.20
2011,07,02,15,23,23.30
2011,07,02,15,24,23.30
2011,07,02,15,25,23.30
2011,07,02,15,26,23.30
2011,07,02,15,27,23.30
2011,07,02,15,28,23.40
2011,07,02,15,29,23.50
2011,07,02,15,30,23.50
2011,07,02,15,31,23.60
2011,07,02,15,32,23.50
2011,07,02,15,33,23.40
2011,07,02,15,34,23.40
2011,07,02,15,35,23.30
2011,07,02,15,36,23.20
2011,07,02,15,37,23.20
2011,07,02,15,38,23.10
2011,07,02,15,39,23.00
2011,07,02,15,40,23.00
2011,07,02,15,41,23.10
2011,07,02,15,42,23.10
2011,07,02,15,43,23.10
2011,07,02,15,44,23.20
2011,07,02,15,45,23.20
2011,07,02,15,46,23.30
2011,07,02,15,47,23.40
2011,07,02,15,48,23.40
2011,07,02,15,49,23.50
2011,07,02,15,50,23.40
2011,07,02,15,51,23.40
2011,07,02,15,52,23.40
2011,07,02,15,53,23.40
2011,07,02,15,54,23.30
2011,07,02,15,55,23.30
2011,07,02,15,56,23.20
2011,07,02,15,57,23.10
2011,07,02,15,58,23.10
2011,07,02,15,59,23.10
2011,07,02,16,00,23.00
2011,07,02,16,01,22.90
2011,07,02,16,02,22.90
2011,07,02,16,03,22.90
2011,07,02,16,04,22.90
2011,07,02,16,05,22.90
2011,07,02,16,06,22.80
2011,07,02,16,07,22.80
2011,07,02,16,08,22.80
2011,07,02,16,09,22.80
2011,07,02,16,10,22.70
2011,07,02,16,11,22.70
2011,07,02,16,12,22.60
2011,07,02,16,13,22.60
2011,07,02,16,14,22.60
2011,07,02,16,15,22.50
2011,07,02,16,16,22.60
2011,07,02,16,17,22.60
2011,07,02,16,18,22.60
2011,07,02,16,19,22.70
2011,07,02,16,20,22.70
2011,07,02,16,21,22.70
2011,07,02,16,22,22.60
2011,07,02,16,23,22.60
2011,07,02,16,24,22.50
2011,07,02,16,25,22.40
2011,07,02,16,26,22.30
2011,07,02,16,27,22.30
2011,07,02,16,28,22.20
2011,07,02,16,29,22.20
2011,07,02,16,30,22.20
2011,07,02,16,31,22.10
2011,07,02,16,32,22.10
2011,07,02,16,33,22.10
2011,07,02,16,34,22.10
2011,07,02,16,35,22.00
2011,07,02,16,36,22.00
2011,07,02,16,37,22.00
2011,07,02,16,38,22.00
2011,07,02,16,39,22.00
2011,07,02,16,40,22.00
2011,07,02,16,41,22.00
2011,07,02,16,42,22.00
2011,07,02,16,43,22.00
2011,07,02,16,44,22.00
2011,07,02,16,45,22.10
2011,07,02,16,46,22.10
2011,07,02,16,47,22.20
2011,07,02,16,48,22.20
2011,07,02,16,49,22.20
2011,07,02,16,50,22.20
2011,07,02,16,51,22.20
2011,07,02,16,52,22.20
2011,07,02,16,53,22.20
2011,07,02,16,54,22.20
2011,07,02,16,55,22.10
2011,07,02,16,56,22.10
2011,07,02,16,57,22.10
2011,07,02,16,58,22.10
2011,07,02,16,59,22.10
2011,07,02,17,00,22.10
2011,07,02,17,01,22.20
2011,07,02,17,02,22.20
2011,07,02,17,03,22.30
2011,07,02,17,04,22.40
2011,07,02,17,05,22.40
2011,07,02,17,06,22.50
2011,07,02,17,07,22.60
2011,07,02,17,08,22.70
2011,07,02,17,09,22.80
2011,07,02,17,10,22.90
2011,07,02,17,11,23.00
2011,07,02,17,12,23.10
2011,07,02,17,13,23.20
2011,07,02,17,14,23.30
2011,07,02,17,15,23.30
2011,07,02,17,16,23.40
2011,07,02,17,17,23.40
2011,07,02,17,18,23.40
2011,07,02,17,19,23.50
2011,07,02,17,20,23.50
2011,07,02,17,21,23.50
2011,07,02,17,22,23.50
2011,07,02,17,23,23.50
2011,07,02,17,24,23.60
2011,07,02,17,25,23.60
2011,07,02,17,26,23.60
2011,07,02,17,27,23.60
2011,07,02,17,28,23.60
2011,07,02,17,29,23.60
2011,07,02,17,30,23.70
2011,07,02,17,31,23.70
2011,07,02,17,32,23.80
2011,07,02,17,33,23.80
2011,07,02,17,34,23.90
2011,07,02,17,35,23.90
2011,07,02,17,36,23.90
2011,07,02,17,37,24.00